GFSMW_sfc_rhum_108.txt.gz
RH
12 10 18 21 23 25 27 27 36 50 56 81 85 87 95 89 84 81 74 68 72 74 80 89 94 98 96 95 92 96 96 98 94 91 82 71 61 55 58 45 42 50 54
9 16 22 27 30 33 33 36 40 49 54 71 74 71 86 84 82 86 75 75 74 79 87 94 96 97 96 94 92 94 95 92 89 87 88 93 83 70 59 44 45 59 50
16 22 27 30 33 34 38 38 40 45 54 59 78 72 82 82 92 90 86 82 75 84 91 92 94 96 95 96 95 94 90 92 87 80 74 85 84 74 68 58 44 65 53
28 27 29 30 33 35 37 40 42 45 53 58 79 75 75 78 69 76 78 85 82 86 86 88 88 94 96 95 94 92 92 90 93 88 86 59 58 60 79 67 49 48 58
31 31 32 31 30 33 45 47 48 49 57 61 76 70 63 57 57 60 69 87 90 88 87 90 93 94 93 93 94 96 95 93 92 88 82 70 63 56 58 66 55 47 44
32 30 29 30 29 33 41 52 54 53 64 75 75 70 63 57 59 68 79 86 90 91 95 91 92 90 91 92 92 93 93 94 92 91 83 72 66 66 61 56 63 52 48
31 31 29 29 33 37 40 48 54 56 68 82 80 68 62 63 61 62 64 76 80 89 92 94 94 95 92 85 87 90 91 92 92 91 90 73 58 59 57 54 55 55 47
31 30 29 32 34 37 40 45 52 60 70 83 82 70 67 57 55 57 57 66 71 70 94 94 89 91 89 88 90 92 93 91 90 89 80 71 64 58 49 43 60 69 59
30 33 34 37 39 44 49 50 58 62 72 84 86 80 72 60 57 59 60 64 66 71 78 94 93 92 91 88 91 92 94 93 89 91 85 74 68 59 61 50 60 52 59
38 39 39 44 44 44 56 56 58 68 70 82 85 84 74 62 58 60 73 71 74 69 75 87 92 92 92 89 91 91 88 92 92 90 86 91 74 64 62 69 66 52 54
43 41 44 46 45 49 62 54 64 69 75 80 86 86 70 63 63 65 74 77 70 66 70 76 93 91 91 92 90 89 92 91 91 92 91 88 92 79 86 78 58 65 53
42 41 46 51 51 63 76 61 70 72 75 81 88 81 73 65 69 71 75 78 74 68 69 78 91 92 94 92 90 89 89 87 88 87 88 90 92 86 89 73 79 58 59
50 47 50 55 62 75 76 80 81 79 82 82 87 85 84 73 73 72 73 74 73 68 72 75 88 92 94 93 92 88 90 87 84 84 83 84 92 91 90 89 73 72 77
58 63 64 62 75 79 80 84 85 84 85 84 86 87 89 77 73 71 74 73 76 75 77 74 76 82 86 86 86 84 85 87 87 86 82 82 90 87 88 91 89 82 92
65 69 75 75 82 82 82 83 89 90 87 89 89 90 87 74 69 70 72 71 73 77 72 78 77 81 83 82 86 84 83 81 81 85 80 80 83 86 84 83 86 91 90
72 68 76 78 85 86 85 83 94 92 89 91 91 86 84 76 74 72 73 76 74 70 78 83 85 86 79 99 99 90 87 81 77 78 82 84 96 96 93 95 100 98 94
75 76 86 91 92 91 89 90 93 92 91 93 90 83 76 78 76 72 71 74 75 72 74 72 80 86 86 100 100 100 84 91 87 84 87 94 96 98 96 98 98 97 97
82 80 84 93 95 91 87 89 90 94 95 94 92 89 85 81 75 74 74 72 70 71 71 76 76 77 80 99 100 100 84 92 90 88 88 90 93 96 97 98 99 99 97
85 88 81 89 98 97 92 93 85 87 89 89 89 89 89 90 88 87 82 76 74 73 71 71 75 81 86 100 99 98 90 82 83 77 77 79 84 96 99 97 98 98 98
83 93 80 87 95 99 94 93 88 88 93 90 92 86 86 87 91 93 95 94 87 88 90 92 95 98 94 98 100 98 95 96 99 99 99 99 94 100 99 98 97 97 98
93 91 81 88 88 96 100 96 97 98 97 89 86 88 84 88 89 91 93 96 97 95 97 97 97 96 97 96 98 100 95 100 99 98 98 98 98 98 97 95 96 96 94
91 94 93 84 91 81 79 83 90 95 94 89 84 85 86 84 84 89 91 91 94 96 97 97 98 97 96 96 97 98 98 96 97 98 97 98 96 96 95 94 93 93 93
96 95 91 89 80 73 77 77 74 74 76 77 82 85 84 82 83 89 91 92 92 95 96 94 96 97 96 96 94 93 95 95 95 94 94 93 92 92 93 91 90 93 95
96 95 92 90 86 81 70 78 72 68 69 74 77 80 87 89 89 87 91 92 94 95 95 96 96 96 95 95 94 94 92 88 91 93 94 92 92 91 94 94 95 96 93
94 96 95 94 92 86 81 69 68 66 67 68 69 74 78 84 88 92 92 94 97 93 94 95 94 95 97 97 90 89 93 93 92 92 92 94 92 92 89 88 87 84 80
74 83 89 86 88 83 81 76 71 71 71 72 74 76 73 79 81 82 90 93 90 88 88 85 89 94 92 93 89 84 84 84 84 92 93 92 89 85 80 75 69 63 62

GFSMW_sfc_rhum_111.txt.gz
RH
12 12 12 14 16 18 19 19 22 31 42 47 51 57 79 76 70 53 56 58 64 73 80 75 76 90 89 94 95 97 97 98 96 96 95 90 76 60 47 46 46 62 60
12 12 12 15 22 23 24 25 24 27 31 38 44 66 78 77 74 65 61 58 71 72 74 77 95 96 96 95 95 96 98 96 97 95 94 98 84 73 57 49 46 62 56
9 10 13 21 24 26 27 26 26 27 32 40 52 73 76 77 84 84 70 67 70 68 75 74 90 96 94 96 95 95 90 95 98 96 87 97 92 84 77 66 42 60 54
10 12 18 22 24 28 29 33 31 30 32 42 53 75 74 77 72 75 67 66 69 70 69 83 91 96 95 95 94 92 90 91 93 96 91 85 75 78 92 66 48 55 57
19 19 21 21 21 23 29 37 38 35 34 39 51 70 77 64 57 62 67 73 74 78 74 82 93 96 96 92 93 96 94 93 91 89 93 94 87 67 67 71 54 48 48
22 20 20 21 20 24 31 36 39 39 40 42 51 73 77 62 52 56 60 69 79 78 84 85 90 88 90 92 92 92 94 94 91 90 90 89 86 70 71 71 65 57 53
23 23 21 21 23 26 30 34 32 40 43 50 54 77 76 69 55 56 59 66 70 82 89 93 91 91 90 90 90 93 93 92 95 96 93 93 84 71 67 58 59 60 54
24 22 23 27 28 29 32 37 38 36 42 50 68 70 76 71 60 57 55 60 63 68 89 91 91 91 89 88 91 94 94 92 95 95 92 93 92 75 63 52 59 64 53
22 26 29 33 36 37 40 40 45 42 40 50 72 74 77 74 64 58 54 55 59 57 74 86 86 88 89 87 91 94 93 92 90 92 93 91 91 91 69 53 52 59 70
27 30 31 36 39 40 44 45 52 47 42 52 72 77 80 69 66 59 59 57 61 65 85 92 92 93 93 92 92 92 91 92 92 93 92 91 90 88 84 77 79 54 58
33 31 34 37 39 43 44 51 61 52 44 64 73 80 82 73 68 62 60 60 65 67 67 79 88 92 93 93 95 94 93 96 94 93 93 92 94 93 90 81 66 75 58
50 42 40 41 42 46 49 56 69 72 66 74 82 86 84 79 69 66 64 65 69 61 60 71 88 91 92 92 93 95 93 94 98 97 94 93 94 96 93 95 84 58 64
50 46 46 48 49 50 55 64 74 87 78 80 87 87 88 84 73 68 68 72 68 66 64 72 80 88 92 93 91 90 91 93 91 95 95 92 92 92 93 94 92 81 78
55 53 53 55 53 55 62 74 82 88 87 84 86 92 89 82 74 69 70 77 66 66 67 73 78 88 92 93 92 92 93 94 93 95 93 93 91 89 92 92 95 95 95
59 59 63 65 59 62 69 80 83 85 90 89 92 93 90 81 76 72 72 77 69 66 68 74 74 80 84 84 89 87 90 92 93 93 93 92 90 94 94 91 93 95 97
64 64 64 67 69 72 80 84 86 86 92 93 94 92 94 85 75 75 77 80 77 66 72 76 79 80 68 97 99 90 87 87 90 95 93 88 97 96 97 96 96 92 94
66 72 76 75 78 82 87 91 88 86 91 94 93 94 92 84 79 77 77 75 78 79 72 69 72 74 71 98 99 98 82 86 85 85 88 88 86 93 87 99 100 99 98
72 83 82 81 83 86 88 91 87 87 95 96 95 94 88 80 77 76 78 78 71 78 81 83 81 76 76 100 100 100 84 89 82 81 78 84 94 93 96 99 99 98 97
78 84 80 84 92 93 94 92 91 93 91 92 93 92 92 88 76 78 78 75 78 79 80 79 78 78 87 100 100 98 89 94 94 89 86 85 89 100 100 98 98 98 98
77 86 81 83 94 100 98 100 100 98 98 95 94 91 91 92 93 94 93 93 79 82 88 92 94 98 91 97 99 97 96 100 100 99 99 99 99 100 100 98 96 98 98
84 92 94 96 98 100 100 100 100 98 100 99 93 96 93 93 93 93 94 95 96 96 97 97 96 95 96 96 98 99 95 100 99 99 98 99 99 98 98 97 98 97 94
88 89 94 95 99 99 100 100 98 100 100 100 100 95 99 96 89 93 93 92 94 96 97 97 97 96 96 95 96 98 98 96 96 98 98 99 96 96 95 94 94 93 94
96 95 94 93 90 98 98 98 99 95 98 96 96 97 98 94 90 94 94 93 92 95 96 94 96 97 95 95 93 94 95 93 95 94 94 92 92 92 92 92 92 93 95
94 96 94 94 93 92 90 85 71 65 72 80 87 86 92 93 91 88 92 93 94 95 95 96 97 97 96 96 95 95 93 89 93 94 94 92 91 90 92 93 94 96 96
83 90 95 95 93 92 86 75 76 68 66 69 69 75 81 84 87 92 93 93 97 94 95 96 95 96 97 98 92 91 94 94 92 91 92 94 93 92 92 92 91 90 84
64 70 80 85 90 87 85 78 75 76 77 77 76 82 80 81 84 84 90 95 94 94 93 89 90 95 92 89 88 90 94 96 88 88 90 92 91 85 78 75 70 65 62

GFSMW_sfc_rhum_114.txt.gz
RH
14 15 20 23 27 28 29 30 36 59 65 68 74 72 72 71 70 70 75 79 79 86 84 83 89 89 94 97 95 98 98 99 98 99 99 99 96 90 80 67 75 66 70
15 16 18 27 28 28 34 36 35 37 49 57 61 66 67 74 72 77 75 73 78 81 78 88 92 93 95 96 97 96 99 98 97 97 95 99 99 96 87 79 70 71 66
17 16 17 30 37 36 40 35 35 37 43 43 57 70 85 86 86 84 75 74 76 77 81 87 96 95 94 96 97 94 95 97 98 98 96 100 98 93 89 76 68 72 72
15 13 18 30 35 38 39 38 42 41 40 50 52 80 84 86 81 83 78 76 80 80 80 83 95 95 95 96 96 95 93 91 96 99 98 94 94 92 95 84 83 68 66
14 16 24 26 28 36 43 43 46 47 47 49 57 79 80 75 76 80 85 83 79 80 77 84 95 95 96 95 95 96 94 91 91 92 97 97 94 93 90 87 87 76 64
25 25 25 26 29 35 44 46 46 42 49 54 60 74 81 77 77 81 83 84 86 84 84 87 92 96 96 96 94 94 93 93 91 92 92 91 90 92 89 85 88 84 72
28 27 25 25 33 40 44 44 43 43 46 59 61 70 78 79 76 73 76 78 86 90 89 90 95 96 96 93 92 94 94 93 94 94 95 92 93 86 85 77 87 82 79
30 29 30 37 40 44 46 50 47 46 47 53 63 68 78 78 74 72 69 78 80 84 86 89 91 93 94 94 93 95 95 93 93 92 94 97 96 92 85 83 75 84 78
28 31 34 42 45 47 51 56 53 51 52 57 58 71 81 83 75 74 77 73 72 72 84 90 90 92 91 94 95 96 96 95 94 93 93 93 95 94 94 90 85 69 83
31 34 38 45 44 47 54 57 55 55 60 65 66 71 77 77 78 79 79 74 73 74 90 92 93 94 94 93 95 96 95 95 95 96 94 93 95 98 97 97 96 80 75
46 44 42 43 46 49 50 54 57 62 67 72 79 74 76 77 79 82 80 74 74 78 85 90 90 93 94 93 95 96 95 95 94 92 95 92 95 97 96 97 94 92 81
49 47 48 50 50 52 52 56 62 66 74 80 76 80 84 81 82 88 80 79 74 77 85 90 92 95 95 95 96 97 96 95 95 94 92 96 96 95 94 96 96 94 86
51 50 50 53 55 57 58 61 66 73 78 81 86 92 91 86 90 92 80 77 75 75 72 85 89 91 94 96 95 94 96 96 94 93 96 93 97 96 96 95 97 95 91
56 56 58 59 61 63 66 69 72 75 80 81 90 94 92 88 88 88 79 78 77 70 70 85 91 93 94 94 94 93 94 95 95 96 92 91 95 95 96 95 94 97 96
59 60 65 68 66 70 74 74 77 79 81 87 90 94 91 89 88 87 80 78 82 75 74 82 87 90 92 90 94 92 93 94 97 98 98 96 94 97 95 94 97 97 97
63 66 69 72 74 77 81 81 81 83 86 89 92 94 93 95 94 88 86 82 85 81 76 74 89 92 84 100 100 95 94 95 96 98 99 99 100 100 100 100 100 96 96
70 75 79 80 82 86 85 88 85 83 87 90 94 94 93 96 95 88 86 88 85 84 81 81 80 85 80 99 100 99 90 94 95 96 97 98 98 99 98 100 100 99 99
76 82 82 83 85 85 90 88 84 84 89 90 91 95 95 95 95 92 90 89 88 90 86 86 86 87 90 100 100 100 91 93 92 92 92 95 96 96 97 99 99 99 98
79 84 84 84 91 92 94 91 87 89 89 94 93 91 95 96 94 92 90 88 88 91 90 92 93 95 96 99 100 99 95 98 96 94 97 94 96 100 99 98 98 98 98
81 88 86 87 92 99 96 98 98 98 97 98 96 94 93 96 97 98 98 97 93 92 92 94 95 97 96 98 99 100 99 99 99 99 99 99 99 100 100 98 98 98 98
81 81 77 88 94 99 100 99 98 98 99 100 98 96 95 94 95 96 96 95 96 96 97 97 97 96 97 97 99 100 99 99 99 99 98 99 98 99 98 98 99 97 95
86 83 85 89 95 95 97 98 98 100 100 98 97 98 100 98 93 94 96 94 95 96 97 97 98 97 96 95 96 96 96 94 97 98 98 97 94 94 95 94 94 93 94
91 90 94 90 93 93 96 96 99 100 100 98 96 96 97 99 100 97 98 97 94 95 96 95 97 98 96 95 93 94 94 94 96 95 95 92 91 91 93 93 93 93 94
92 89 91 95 96 95 95 97 98 99 99 95 96 96 96 95 96 95 96 96 96 95 95 95 96 97 96 96 96 96 94 91 94 94 95 94 94 92 93 93 93 94 94
87 88 91 91 93 96 95 95 95 91 94 93 87 92 92 94 93 95 96 95 97 96 95 96 96 96 97 98 94 92 94 94 93 91 90 92 92 92 93 94 95 96 93
67 75 81 85 88 86 87 92 94 94 90 88 90 91 87 86 88 88 92 93 93 93 94 93 91 96 97 94 92 94 97 89 83 87 92 94 91 88 84 82 79 75 73

GFSMW_sfc_rhum_117.txt.gz
RH
15 15 16 19 22 31 36 60 74 76 82 90 93 96 85 86 95 88 86 90 85 88 94 90 94 96 97 96 97 98 97 100 98 99 99 99 98 97 97 85 82 78 78
21 15 16 29 28 37 42 42 64 85 82 81 80 86 94 91 79 91 91 86 89 93 89 90 94 97 98 97 97 96 99 99 98 99 98 100 100 99 97 92 85 81 76
23 22 28 34 40 42 40 39 44 53 72 76 85 95 95 96 95 95 95 91 89 92 91 88 94 96 97 97 97 96 96 98 99 95 96 100 98 97 99 96 84 80 80
22 21 33 41 41 44 48 46 51 52 51 56 79 90 92 97 96 96 93 81 90 88 86 89 95 96 97 96 94 94 94 93 95 99 98 95 94 96 100 96 89 79 76
17 24 32 36 39 47 56 55 53 52 54 56 67 92 94 89 96 97 94 90 91 86 86 88 96 97 97 97 96 97 96 93 94 96 99 98 97 97 93 97 98 91 82
28 29 31 39 50 52 54 54 56 54 56 64 69 91 94 94 96 96 96 93 86 92 90 90 96 94 94 96 96 96 96 95 93 94 94 91 90 92 89 92 94 92 86
30 35 46 52 53 56 58 52 54 54 57 64 66 75 93 93 91 92 92 94 86 87 91 92 97 96 93 94 94 96 96 95 94 94 94 89 93 84 83 87 96 92 96
40 48 51 51 52 57 59 60 56 56 57 63 68 73 73 91 86 82 84 88 85 86 89 94 94 95 94 94 95 96 96 94 95 94 95 93 96 93 87 84 90 99 98
48 49 48 51 56 58 62 66 63 60 62 67 71 75 76 86 88 85 82 92 81 81 92 95 96 96 96 96 96 97 97 96 95 95 96 95 96 97 95 89 81 78 95
53 53 56 56 56 58 65 67 67 65 65 66 73 73 79 81 88 89 91 92 84 83 92 95 96 97 97 96 96 97 96 97 96 95 94 94 96 96 98 96 90 92 86
59 59 58 57 58 59 61 64 66 66 68 69 75 79 88 84 88 92 93 91 82 82 90 95 94 97 97 96 97 97 97 98 97 95 96 93 96 96 98 96 96 97 95
62 60 60 62 63 64 64 67 71 72 73 74 77 78 86 86 90 93 94 89 82 89 91 94 92 95 96 97 98 98 97 97 98 97 96 95 94 95 97 96 96 96 97
62 62 66 68 67 68 71 72 74 78 79 78 80 81 88 94 94 93 94 86 86 90 91 94 94 96 95 96 96 95 96 96 95 95 96 94 95 96 96 95 97 96 96
65 68 72 74 73 74 77 78 80 80 79 78 83 85 88 94 95 96 95 86 84 89 93 93 93 94 97 96 96 96 97 97 95 93 92 94 94 93 94 93 93 96 95
71 74 78 78 77 80 82 82 83 82 81 83 84 87 86 92 94 96 95 89 85 79 92 93 93 93 94 94 96 96 97 98 99 97 96 93 94 97 95 92 94 97 96
75 77 78 77 80 82 84 85 87 84 84 84 86 84 88 93 94 95 95 95 90 82 88 94 96 97 92 100 100 97 96 96 98 99 99 99 100 100 100 100 100 95 94
81 81 83 83 85 88 87 93 88 81 84 85 82 83 90 96 96 93 91 94 91 88 88 94 94 96 92 100 100 100 95 97 98 98 99 99 99 100 99 99 99 99 99
84 87 87 86 88 88 88 89 82 82 83 85 86 86 89 95 97 94 93 95 93 91 90 92 92 93 94 100 100 100 96 97 97 97 97 98 99 99 98 98 99 99 98
85 88 87 86 91 90 90 92 87 85 85 87 90 91 92 90 98 98 97 95 95 94 96 95 96 96 97 100 100 100 97 98 99 94 96 97 98 100 99 98 98 98 98
83 90 88 84 91 95 91 98 97 96 96 94 96 93 94 93 95 98 97 99 96 96 95 97 96 98 98 98 100 99 99 99 99 99 99 99 100 100 99 98 98 98 98
86 85 88 93 94 95 97 97 97 98 94 94 96 96 97 95 96 97 98 97 97 97 97 97 97 97 98 98 99 100 99 98 99 99 98 99 99 99 99 99 99 98 96
89 88 90 91 94 94 96 95 98 97 94 95 96 97 97 99 95 96 97 96 96 97 98 98 98 98 97 97 98 98 97 97 97 98 98 98 96 96 95 95 94 93 94
95 94 92 90 87 91 94 93 98 97 94 95 96 97 97 97 100 97 97 96 96 96 96 96 98 98 97 96 94 94 95 94 97 96 94 91 91 91 93 93 92 93 94
95 95 92 91 92 92 89 94 96 97 94 96 97 96 96 96 96 95 97 96 96 95 95 95 96 97 96 96 96 96 94 91 93 94 94 94 93 94 94 94 94 95 94
93 91 95 94 94 91 90 90 88 92 95 96 97 96 95 96 96 96 97 96 97 97 96 97 96 96 97 98 94 91 94 95 97 95 94 94 94 94 94 94 93 94 95
82 85 88 90 92 88 88 90 88 87 90 94 95 96 95 95 95 94 94 97 98 98 98 98 95 98 98 97 95 95 95 94 88 90 92 94 92 92 90 88 85 83 81

GFSMW_sfc_rhum_123.txt.gz
RH
20 19 20 22 23 27 54 72 75 81 88 86 93 98 97 98 98 98 95 96 95 96 96 98 97 96 96 98 98 99 98 99 98 99 100 100 98 98 98 96 96 96 95
24 22 21 23 25 27 29 64 69 75 82 78 77 88 90 97 94 97 96 94 95 96 95 96 97 96 96 97 98 96 99 99 98 99 98 100 100 99 98 98 96 96 94
23 21 22 23 30 35 47 52 62 69 79 81 96 99 97 98 99 100 98 96 96 96 94 96 96 97 96 97 97 96 96 99 99 96 95 100 98 99 99 97 96 96 96
25 26 47 59 75 84 85 87 88 90 95 96 96 95 95 95 94 92 95 98 96 95 95 95 96 96 97 96 96 96 95 94 98 99 98 93 93 97 99 99 98 95 97
41 67 65 64 66 64 65 66 70 72 76 87 90 97 97 98 98 97 96 98 98 95 94 94 96 97 98 96 96 98 97 94 94 96 100 99 97 96 98 99 100 98 95
65 63 59 58 62 62 62 63 65 67 72 78 81 83 88 91 97 98 98 98 98 98 96 94 95 93 96 97 97 96 96 96 93 94 95 96 96 96 98 99 98 97 98
65 66 71 71 71 71 67 64 69 70 75 76 78 80 84 86 87 93 98 98 99 99 97 97 97 96 95 95 94 96 96 96 95 94 94 94 94 93 89 95 98 99 99
74 76 75 73 71 71 72 69 68 71 70 73 77 79 80 82 87 92 96 98 97 95 94 97 96 96 96 96 96 96 95 95 96 96 95 94 92 93 91 90 95 100 99
80 78 74 73 71 71 73 72 71 72 72 74 77 80 81 83 87 88 88 88 94 94 94 96 96 96 96 95 96 96 97 97 96 96 96 95 93 95 93 91 93 93 99
76 72 71 73 71 70 70 71 71 73 72 72 77 75 82 82 82 84 91 91 88 93 94 95 96 96 96 96 96 96 96 97 98 97 97 96 95 96 95 95 91 89 90
77 74 73 71 72 71 72 74 76 77 78 78 79 82 82 82 83 86 86 88 89 89 92 92 94 95 96 97 97 96 97 98 98 98 96 94 95 96 96 96 94 98 94
76 74 73 73 73 78 78 82 83 85 84 81 82 84 82 81 86 87 86 84 84 91 85 91 94 94 93 95 97 97 97 98 98 98 98 97 97 97 97 97 96 95 97
80 78 75 77 77 78 79 80 80 80 82 80 82 83 85 85 86 86 86 84 85 90 83 92 95 95 95 97 96 96 97 96 96 96 97 96 97 98 98 97 96 95 95
84 82 84 83 81 80 82 81 82 82 83 80 81 83 85 86 86 85 85 86 86 92 92 93 94 94 94 96 97 97 97 97 96 96 95 95 96 96 98 98 97 96 97
89 88 86 83 83 84 82 81 82 81 81 83 85 83 81 80 83 84 84 85 88 90 94 94 94 93 95 97 98 97 97 98 98 97 96 95 96 99 98 96 97 97 96
89 87 82 82 84 85 86 84 84 82 81 80 82 81 80 80 82 84 84 83 87 91 95 96 95 98 96 100 100 97 96 96 98 98 98 96 99 99 100 100 100 97 97
88 89 85 87 85 86 85 91 87 82 82 81 80 80 81 83 83 82 82 84 89 91 95 95 96 98 96 100 100 100 96 97 97 97 98 99 99 100 98 100 100 100 100
88 88 86 86 90 87 89 87 83 82 82 83 83 82 84 84 83 85 86 87 89 92 96 96 97 97 97 100 100 100 98 98 98 98 98 98 99 99 99 99 99 99 99
84 84 84 88 90 92 84 84 82 83 86 90 87 85 86 87 86 89 92 90 92 93 96 95 98 98 99 100 100 100 98 99 100 99 99 99 99 100 99 98 99 99 99
83 88 88 85 92 94 90 88 92 88 95 93 90 85 87 88 89 92 94 92 94 98 99 99 100 100 99 100 100 100 98 99 99 99 99 100 100 100 98 98 98 99 99
85 84 86 91 93 89 88 91 93 96 94 91 90 90 87 89 88 90 92 94 96 97 99 98 99 98 99 99 100 100 98 98 99 100 100 100 100 99 99 96 99 99 98
90 89 92 89 90 86 90 90 97 90 90 90 90 91 92 89 89 91 93 94 94 97 99 99 98 99 99 100 100 100 99 99 99 99 99 100 98 99 99 98 96 95 95
93 92 96 93 90 89 92 96 94 87 92 91 92 92 90 90 90 92 94 95 95 95 96 98 97 97 98 98 98 98 98 98 98 98 98 96 96 96 96 96 95 95 96
97 95 95 92 94 91 88 93 87 82 86 92 93 92 92 91 91 90 94 95 96 96 96 96 97 97 97 97 98 97 96 95 96 96 96 95 95 94 95 96 96 96 96
93 95 96 96 95 93 89 85 86 82 87 90 92 93 92 93 93 96 96 96 97 97 97 97 97 97 97 99 96 96 97 97 96 94 94 95 95 96 96 96 95 94 92
84 88 91 92 93 91 89 90 88 83 85 89 92 92 92 94 94 94 95 94 95 97 97 97 97 96 96 96 94 94 94 94 93 91 94 95 95 95 95 95 95 94 94